Flag for Belgium Weather past 2 weeks in Kortrijk, Belgium

Now
79 °F

Broken clouds.


Feels Like: 80 °F
Forecast: 58 / 74 °F
Wind: 7 mph from South

Location: Lille Airport

Current Time: Sep 19, 2014 at 4:38:04 PM

Latest Report: Sep 19, 2014 at 4:00 PM


Visibility: N/A

Pressure: 29.86 "Hg

Humidity: 54%

Dew point: 61 °F

Location of KortrijkLocation

Historic Weather in Kortrijk — Graph

°F

Kortrijk temperature yesterday

Maximum temperature yesterday: 77 °F (at 3:00 PM)
Minimum temperature yesterday: 64 °F (at 3:30 AM)
Average temperature yesterday: 69 °F

Past Weeks' High & Low Weather Summary

 TemperatureHumidityPressure
High81 °F (Sep 17, 3:30 PM)100% (Sep 6, 3:30 AM)30.27 "Hg (Sep 6, 3:30 AM)
Low52 °F (Sep 9, 4:00 AM)48% (Sep 17, 3:00 PM)29.77 "Hg (Sep 18, 3:00 AM)
Average64 °F79%30.02 "Hg
* Reported Sep 4 3:00 PM — Sep 19 3:30 PM, Kortrijk, Weather by CustomWeather, © 2014

Note: Actual official high and low records may vary slightly from our data, if they occured in-between our weather recording intervals... More about our weather records

Advertising

Kortrijk weather history for previous 24 hours

 ConditionsComfort  
Time TempWeatherWind HumidityBarometerVisibility
3:30 PM
Sep 19
79 °FBroken clouds.3 mph58%29.86 "HgN/A
3:00 PM79 °FBroken clouds.5 mph54%29.86 "HgN/A
2:30 PM79 °FBroken clouds.7 mph54%29.86 "HgN/A
2:00 PM79 °FPartly sunny.1 mph54%29.86 "HgN/A
1:30 PM79 °FPartly sunny.3 mph61%29.86 "HgN/A
1:00 PM77 °FPartly sunny.2 mph61%29.86 "HgN/A
12:30 PM75 °FSunny.2 mph65%29.86 "Hg10 mi
12:00 PM73 °FSunny.3 mph69%29.86 "Hg10 mi
11:30 AM72 °FSunny.2 mph73%29.86 "Hg10 mi
11:04 AM70 °FSunny.2 mph78%29.86 "Hg10 mi
10:30 AM66 °FClear.5 mph88%29.86 "Hg6 mi
10:00 AM64 °FClear.2 mph88%29.86 "Hg5 mi
9:30 AM63 °FClear.2 mph94%29.86 "Hg4 mi
9:00 AM61 °FFog.2 mph100%29.86 "Hg3 mi
8:30 AM61 °FFog.1 mph94%29.86 "Hg2 mi
8:00 AM59 °FFog.No wind100%29.83 "Hg2 mi
7:30 AM59 °FFog.1 mph100%29.83 "Hg2 mi
7:00 AM59 °FFog.1 mph94%29.83 "Hg2 mi
6:30 AM59 °FFog.No wind100%29.80 "Hg2 mi
6:00 AM59 °FFog.No wind100%29.80 "Hg2 mi
5:30 AM61 °FClear.No wind94%29.80 "Hg5 mi
5:00 AM61 °FClear.1 mph94%29.83 "Hg10 mi
4:30 AM61 °FClear.1 mph94%29.80 "HgN/A
4:00 AM61 °FClear.2 mph94%29.83 "HgN/A
3:30 AM61 °FClear.No wind94%29.83 "HgN/A
3:00 AM61 °FClear.No wind94%29.80 "HgN/A
2:30 AM61 °FClear.3 mph94%29.83 "HgN/A
2:00 AM61 °FPassing clouds.No wind94%29.83 "HgN/A
1:00 AM63 °FPassing clouds.3 mph88%29.80 "Hg6 mi
12:30 AM64 °FPassing clouds.2 mph94%29.80 "HgN/A
12:00 AM66 °FPassing clouds.2 mph88%29.80 "HgN/A
11:30 PM
Sep 18
66 °FPartly cloudy.5 mph88%29.83 "HgN/A
11:00 PM68 °FPartly cloudy.3 mph83%29.80 "HgN/A
10:30 PM68 °FThunderstorms. Passing clouds.2 mph78%29.83 "HgN/A
10:00 PM70 °FPassing clouds.7 mph83%29.80 "HgN/A
9:30 PM70 °FPassing clouds.5 mph83%29.80 "HgN/A
9:00 PM70 °FPassing clouds.3 mph83%29.80 "HgN/A
8:30 PM72 °FSunny.3 mph78%29.80 "Hg10 mi
8:00 PM72 °FSunny.3 mph78%29.80 "Hg10 mi
7:30 PM73 °FScattered clouds.3 mph74%29.80 "HgN/A
7:00 PM73 °FScattered clouds.3 mph69%29.77 "HgN/A
6:30 PM75 °FScattered clouds.1 mph69%29.77 "HgN/A
6:00 PM75 °FPassing clouds.3 mph69%29.77 "HgN/A
5:30 PM75 °FPassing clouds.3 mph69%29.77 "HgN/A
5:00 PM75 °FScattered clouds.3 mph65%29.77 "HgN/A
4:30 PM73 °FScattered clouds.3 mph78%29.77 "HgN/A
4:00 PM73 °FSprinkles. Scattered clouds.5 mph74%29.77 "HgN/A
Weather by CustomWeather, © 2014

See weather overviewHow to use our weather pages